Theta_e
324 326 329 326 324 324 323 324 326 324 321 319 318 319 317 317 316 312 310 310 322 327 328 329 329 330 332 330 329 329 329 329 332 331 327 325 325 324 323 322 322 323 325 323
324 327 322 320 322 324 326 326 326 324 319 321 322 321 319 318 318 316 315 311 310 323 326 328 329 329 331 331 329 330 329 329 329 331 330 326 326 325 324 323 323 323 325 325
324 322 319 322 323 326 325 327 327 328 316 319 321 322 320 318 317 317 316 315 311 314 324 327 328 329 330 330 330 330 330 331 329 329 329 328 326 326 325 324 324 324 325 325
322 320 321 322 324 324 327 323 326 326 321 329 323 334 321 320 322 320 319 316 314 310 317 324 327 328 329 331 330 331 330 330 330 328 328 328 327 325 325 324 324 324 324 325
323 321 322 323 323 322 322 323 324 323 324 326 324 326 322 319 321 320 319 318 315 314 311 320 324 327 329 330 330 330 330 330 330 329 327 327 327 327 326 325 325 325 324 325
321 316 320 321 320 322 318 320 320 321 324 331 325 326 326 322 321 319 318 318 319 314 308 312 322 326 328 329 330 330 327 328 329 328 327 326 325 326 326 326 325 325 325 325
324 320 317 318 321 319 321 325 325 329 330 327 320 324 327 319 318 318 318 316 315 314 311 308 312 322 325 327 329 329 328 323 324 325 325 325 325 324 324 325 325 325 325 325
325 324 320 318 321 323 324 325 321 322 324 321 317 324 323 319 320 316 315 314 313 311 310 308 307 313 322 325 327 328 329 328 324 323 323 324 325 325 324 324 325 325 325 324
325 324 319 317 317 320 323 327 315 314 301 315 316 315 313 314 312 315 315 313 311 308 306 309 309 309 315 322 325 327 328 329 329 327 323 322 323 323 324 324 325 325 325 325
321 323 318 318 318 317 322 320 323 315 317 319 317 316 318 316 317 314 311 308 306 306 306 304 304 307 310 317 322 326 328 329 329 330 328 325 324 324 324 324 325 326 326 326
318 319 319 317 323 323 322 324 320 319 315 318 315 316 311 314 317 315 311 308 307 304 304 304 304 305 306 310 317 322 325 328 329 329 330 330 329 327 325 324 325 326 327 327
320 320 321 323 313 315 319 323 322 324 320 316 315 315 310 309 310 311 307 305 304 304 303 303 304 306 307 308 308 308 309 316 323 326 327 328 329 330 329 329 327 327 328 328
317 319 324 322 318 315 322 320 322 318 314 320 317 317 306 304 306 305 305 305 304 304 304 304 304 305 307 308 308 308 308 308 308 308 313 320 324 326 327 328 328 329 329 329
315 317 322 324 323 321 322 322 321 321 323 320 319 317 310 306 305 305 305 305 304 305 305 304 303 303 306 307 308 307 308 308 308 308 308 308 310 311 313 316 319 323 325 327
318 316 319 316 316 319 319 321 321 322 321 320 319 317 313 305 304 305 305 304 303 304 305 305 304 303 304 306 307 307 307 307 307 308 308 309 310 310 311 313 317 320 320 318
319 315 317 313 315 318 320 320 320 321 320 318 317 316 314 309 304 303 304 303 304 306 306 305 303 303 304 304 305 305 306 306 306 307 307 308 308 309 309 311 313 314 315 313
319 318 316 320 312 318 320 320 320 320 320 320 320 318 310 306 306 305 304 304 307 307 305 303 302 301 303 304 305 305 305 305 305 306 306 306 306 306 307 308 308 308 307 307
319 317 317 317 316 322 317 316 318 319 319 318 318 315 313 310 307 307 305 306 305 304 303 302 301 302 303 304 305 304 304 304 304 303 303 303 304 304 304 304 304 303 303 303
316 315 315 317 320 312 310 308 318 318 319 317 317 313 311 309 307 308 304 304 305 303 301 301 302 302 302 302 302 302 301 301 301 300 300 301 301 302 302 302 302 302 303 303
317 316 316 310 320 321 314 306 313 314 319 315 315 316 309 308 313 311 303 301 300 299 300 299 300 300 299 299 300 299 297 297 297 297 297 298 298 298 298 298 298 299 299 298
318 315 317 318 317 311 308 305 313 319 317 313 314 315 312 311 313 305 300 298 297 297 298 298 297 296 296 297 298 296 295 295 295 296 296 297 296 296 296 296 295 295 296 295
315 316 315 313 315 319 303 311 315 314 308 307 311 313 313 312 302 301 299 297 295 294 294 294 292 292 294 295 297 294 294 294 295 295 295 295 294 294 294 293 293 292 292 291
312 316 314 314 316 305 308 310 310 304 305 303 305 309 312 311 300 298 296 294 293 292 291 291 290 289 291 293 295 293 292 293 294 294 293 292 292 291 291 290 289 289 289 289
308 306 310 310 307 305 304 304 305 303 303 301 301 303 306 304 299 295 294 292 291 289 288 287 287 285 285 289 291 292 292 292 293 292 291 290 291 290 290 289 289 287 287 286
306 306 304 304 304 303 302 302 302 302 300 298 297 299 300 299 297 294 292 290 289 287 286 286 284 283 283 286 288 289 290 291 291 290 289 289 289 288 287 287 286 286 286 286
297 299 310 309 303 305 305 302 300 300 300 297 296 295 295 297 294 292 290 288 287 284 283 282 282 282 282 285 287 288 288 289 289 288 287 287 288 287 287 286 286 285 285 285
Wind_Speed
9 8 9 14 6 2 5 4 6 3 5 6 9 12 11 11 4 8 8 8 12 14 22 24 34 36 35 34 39 40 38 41 39 35 34 32 32 30 30 29 28 27 26 25
4 18 10 8 5 5 3 6 5 5 3 6 7 13 10 8 8 9 13 10 12 12 9 18 29 31 36 35 40 41 41 38 43 40 37 33 35 34 33 32 31 30 29 27
17 5 9 13 9 9 8 6 4 5 2 4 2 9 5 8 8 10 10 14 10 15 16 14 22 30 33 35 42 44 45 42 40 44 37 32 30 31 32 35 33 34 32 30
15 13 18 14 18 15 15 9 4 3 3 4 4 7 5 7 17 11 17 13 16 13 11 14 22 24 33 42 41 45 44 44 42 41 36 35 30 28 33 33 36 35 34 34
17 21 21 18 21 17 7 10 8 3 3 0 4 3 6 4 7 11 11 17 16 17 13 14 20 31 38 36 41 42 43 43 41 41 42 36 33 29 28 31 31 35 36 37
8 6 12 12 10 14 7 7 5 3 2 9 8 8 8 8 8 9 7 11 13 13 11 14 25 31 30 33 36 41 40 44 43 41 42 41 36 33 30 32 34 37 38 39
18 13 6 11 9 4 7 12 4 6 6 11 5 8 18 6 10 8 10 10 10 10 10 10 11 18 24 31 37 39 39 38 42 44 44 45 45 41 42 41 38 34 37 41
16 8 17 16 14 13 24 17 6 8 5 7 2 9 6 14 21 10 8 8 7 8 8 9 11 20 24 32 36 36 35 38 42 45 48 50 46 42 42 38 34 39 39 43
14 15 17 8 5 15 17 18 8 6 3 3 5 7 8 10 10 9 13 9 9 8 6 6 8 20 29 31 33 37 39 40 37 43 39 37 39 39 37 38 36 39 41 40
4 7 13 6 5 1 20 13 6 1 6 5 5 6 7 7 15 9 8 10 9 7 5 4 1 2 14 23 28 31 33 34 37 39 38 39 41 43 43 38 40 41 41 39
10 4 4 6 15 22 6 16 6 6 4 5 2 7 8 13 17 11 10 8 8 9 8 5 3 5 5 7 12 20 25 29 30 31 35 36 38 39 41 41 41 42 41 41
18 6 10 22 2 5 10 15 18 10 13 4 3 6 3 10 6 7 8 8 7 7 8 6 6 5 5 5 4 6 11 15 22 26 28 30 32 32 33 38 40 40 40 40
20 4 6 7 3 3 20 13 24 9 4 15 5 7 3 5 5 7 11 8 7 7 7 4 3 4 4 3 3 4 8 11 15 18 20 23 26 29 32 33 33 33 34 34
9 6 16 20 33 21 28 30 26 23 12 15 18 7 4 4 6 6 7 8 9 8 8 5 4 6 8 6 5 4 6 9 9 11 14 17 19 20 20 21 23 24 26 27
11 5 18 7 7 15 22 25 26 24 30 14 30 13 11 10 11 13 11 7 8 8 8 8 7 6 7 6 6 7 8 8 9 10 10 11 11 12 13 14 14 15 15 16
15 4 5 4 7 20 17 27 25 27 25 24 18 16 12 11 5 5 11 10 9 9 9 8 6 6 6 6 7 7 7 7 7 6 6 6 6 7 8 8 8 9 11 12
22 16 11 15 4 9 13 27 32 33 29 34 21 32 7 9 16 18 14 12 11 8 8 8 7 5 2 2 2 2 3 4 4 4 3 3 4 4 5 6 7 8 8 10
27 23 14 9 12 17 7 21 32 34 32 29 29 17 18 11 17 11 9 13 10 9 9 7 6 5 4 3 3 3 4 5 4 3 1 1 1 2 3 4 5 5 5 7
20 11 5 7 15 1 7 10 33 24 30 29 30 17 13 8 6 10 9 9 10 9 7 11 11 9 9 7 6 8 9 8 7 5 2 1 0 1 2 2 3 3 6 7
29 22 6 3 12 17 10 9 17 12 20 25 33 31 11 11 13 11 10 8 8 11 15 16 14 13 11 10 13 15 14 12 10 7 5 4 3 3 3 3 2 2 5 7
14 11 15 13 8 7 6 12 21 15 17 21 28 31 24 20 17 8 11 7 10 15 19 20 17 15 11 13 16 18 16 14 10 9 9 9 7 6 6 5 4 3 3 4
8 7 5 3 3 14 9 24 25 20 4 2 18 24 28 26 10 14 12 14 14 12 17 22 21 17 15 16 18 18 17 14 12 12 12 11 10 10 8 7 7 6 4 2
5 14 10 12 10 1 25 10 13 3 6 5 8 15 27 21 10 16 13 13 12 15 18 22 24 21 17 17 18 21 17 15 15 15 16 14 13 12 11 10 9 6 5 4
1 4 5 5 7 6 15 3 2 2 5 5 5 6 15 16 16 11 14 12 11 15 17 23 24 20 18 16 16 19 18 17 16 18 17 14 12 12 12 12 12 10 6 6
3 7 6 3 1 3 3 7 8 5 3 6 5 4 11 18 14 18 13 12 12 17 18 22 20 21 20 18 19 17 16 16 19 18 16 15 13 11 10 10 9 7 7 7
5 3 6 4 2 4 6 11 5 8 7 9 8 6 4 13 19 15 13 14 19 19 22 22 22 26 22 22 22 19 17 15 19 20 17 15 13 12 11 9 9 8 6 4
Wind_Direction
157 238 215 196 183 199 163 170 185 220 224 178 222 246 246 259 248 256 247 219 221 218 223 214 217 214 214 218 214 216 215 215 213 211 212 211 212 219 224 224 227 224 222 221
152 236 218 168 167 190 230 203 229 294 268 188 263 255 242 252 240 220 237 233 219 226 218 210 217 216 208 213 216 215 218 218 217 215 216 216 217 222 227 226 227 228 227 226
203 225 178 177 187 188 215 202 184 214 209 198 333 269 220 249 241 246 238 238 214 213 212 210 208 212 210 208 215 215 217 219 220 217 217 220 224 228 229 229 230 229 229 230
210 213 184 190 196 190 211 169 202 210 193 222 138 279 252 236 241 242 242 230 232 212 218 215 203 207 209 216 212 217 220 221 222 219 214 215 216 217 225 228 232 232 231 234
197 183 194 198 202 180 219 166 174 139 172 222 196 259 269 222 245 245 235 228 228 229 208 206 204 207 212 212 211 214 219 221 223 221 218 217 219 225 226 230 233 237 235 234
203 189 184 202 183 184 147 84 72 84 135 241 201 207 236 207 213 247 241 236 229 231 211 217 211 209 212 211 213 216 215 219 222 224 223 220 221 221 224 228 232 236 237 236
193 194 151 153 154 126 165 156 178 212 204 246 206 207 247 232 238 228 246 253 246 226 226 202 206 205 207 208 211 216 214 213 219 221 223 224 227 223 226 229 228 228 232 235
201 203 191 185 191 185 192 173 165 187 197 232 99 232 248 227 236 224 233 237 263 247 221 223 210 212 210 211 212 212 211 215 217 219 223 225 226 225 229 230 228 231 233 239
197 212 184 196 182 159 190 199 156 92 33 92 220 283 297 264 253 228 219 232 240 247 222 217 229 219 219 218 214 213 216 220 220 224 224 224 225 226 228 232 236 237 242 243
263 182 195 222 132 292 185 172 168 43 154 222 251 266 230 226 233 233 210 209 211 214 194 193 159 201 223 224 224 219 221 223 223 227 227 229 231 233 235 235 236 241 243 246
214 251 180 163 202 187 152 190 190 153 167 188 199 251 212 204 221 210 212 205 192 184 184 178 131 116 131 163 202 219 226 230 231 232 235 234 236 238 239 237 241 243 246 247
189 233 181 197 165 235 205 197 188 190 211 227 162 270 227 232 243 184 183 183 180 176 167 149 129 125 123 125 155 212 229 236 242 244 244 244 244 244 244 245 244 247 249 251
193 229 176 169 284 1 200 201 202 198 93 217 162 246 345 352 192 191 166 173 176 173 169 155 144 164 168 165 176 205 221 232 238 240 240 241 242 243 246 250 253 253 252 252
188 197 224 199 199 184 191 198 194 196 211 216 225 228 273 285 210 172 171 181 180 185 188 187 185 192 194 200 210 230 240 235 233 235 238 241 244 249 254 257 257 257 259 257
182 239 217 241 180 193 208 202 194 200 221 204 238 222 226 216 212 197 182 174 179 204 203 201 189 190 188 210 233 254 253 238 232 236 237 243 246 246 247 249 251 253 254 250
193 188 241 246 209 192 191 198 200 211 214 226 221 239 199 206 164 202 197 183 192 202 206 200 191 173 187 213 233 253 254 251 246 244 249 252 259 267 267 262 260 259 260 269
206 203 186 225 243 171 203 195 200 209 213 218 212 228 168 190 190 201 203 192 191 192 185 182 176 165 196 281 285 238 241 220 213 223 239 254 260 259 260 264 273 281 284 275
198 196 195 200 140 210 221 205 208 208 212 215 231 229 208 198 197 199 201 185 190 182 173 158 146 159 157 162 167 158 141 138 139 133 147 252 256 264 281 295 307 315 316 312
213 173 159 176 193 280 253 213 196 189 221 214 227 212 200 176 128 229 187 183 179 167 155 155 157 149 134 128 130 125 109 105 103 88 77 78 255 305 300 328 355 340 321 306
192 193 187 167 187 208 234 161 186 175 257 217 219 219 176 148 201 214 177 147 137 136 143 141 138 134 131 126 135 127 112 102 82 76 79 77 70 63 60 50 31 329 318 330
186 173 194 193 193 271 231 149 135 154 236 221 211 210 190 195 204 143 133 121 132 139 144 146 141 130 127 134 136 115 110 94 97 100 101 103 101 98 92 88 82 77 32 2
164 155 166 144 171 256 171 147 164 210 117 211 201 196 197 204 134 144 146 146 145 139 141 140 127 128 132 136 132 117 107 114 120 117 113 110 111 109 107 105 100 93 85 77
148 193 177 188 207 144 175 162 202 97 162 176 177 194 199 186 154 148 150 151 148 149 144 139 133 130 129 139 140 128 125 129 128 124 118 118 116 112 110 104 94 95 99 99
227 187 166 114 211 196 201 253 225 212 189 145 160 155 160 159 150 142 146 143 142 146 142 141 132 126 120 125 123 120 127 132 131 120 115 114 112 115 117 120 122 112 76 23
183 152 153 277 210 50 266 218 177 136 86 95 81 151 152 139 150 143 145 147 148 141 145 143 136 129 126 125 118 122 127 135 124 118 114 110 110 106 103 102 92 87 103 113
358 2 202 206 196 166 208 207 145 129 168 159 146 102 80 150 147 145 142 146 144 142 142 133 132 132 133 128 125 128 131 134 129 120 117 113 110 102 98 95 98 87 71 63